Grand Island, NE

11:07 PM CST on December 13, 2017 (GMT -0600)
Central Nebraska Regional

Weather History for KGRI - September, 2011

Change the Weather History Date:

Friday, September 2, 2011

  Actual Average Record
Temperature  
Mean Temperature 74 °F 71 °F  
Max Temperature 82 °F 83 °F 101 °F (1929)
Min Temperature 66 °F 58 °F 40 °F (1974)
Degree Days  
Heating Degree Days 0 1  
Month to date heating degree days 0 2  
Since 1 July heating degree days 0 12  
Cooling Degree Days 9 6  
Month to date cooling degree days 27 13  
Year to date cooling degree days 1066 927  
Growing Degree Days 26 (Base 50)    
Moisture  
Dew Point 69 °F    
Average Humidity 71    
Maximum Humidity 93    
Minimum Humidity 49    
Precipitation  
Precipitation 0.43 in 0.08 in 2.23 in (1942)
Month to date precipitation 0.43 0.17  
Year to date precipitation 23.24 20.94  
Snow  
Snow 0.00 in 0.00 in - ()
Month to date snowfall 0.0 0.0  
Since 1 July snowfall 0.0 0.0  
Since 1 September snowfall 0.0 0.0  
Snow Depth 0.00 in    
Sea Level Pressure  
Sea Level Pressure 29.88 in    
Wind  
Wind Speed 8 mph (NE)    
Max Wind Speed 21 mph    
Max Gust Speed 25 mph    
Visibility 8 miles    
Events Rain , Thunderstorm    
T = Trace of Precipitation, MM = Missing Value Source: NWS Daily Summary

Daily Weather History Graph

Daily Weather History Graph

Search for Another Location

Airport or City:

Trip Planner

Search our weather history database for the weather conditions in past years. The results will help you decide how hot, cold, wet, or windy it might be!

Date:

Astronomy

Sep. 02, 2011 Rise Set
Actual Time 7:00 AM CDT 8:04 PM CDT
Civil Twilight 6:32 AM CDT 8:32 PM CDT
Nautical Twilight 5:58 AM CDT 9:06 PM CDT
Astronomical Twilight 5:23 AM CDT 9:41 PM CDT
Moon 12:38 PM CDT (9/2) 10:36 PM CDT (9/2)
Length of Visible Light 14h 00m
Length of Day
13h 03m
Waxing Crescent, 28% of the Moon is Illuminated
Sep 2
Waxing Crescent
Sep 4
First Quarter
Sep 12
Full
Sep 20
Last Quarter
Sep 27
New

Hourly Weather History & Observations

Time (CDT) Temp. Heat Index Dew Point Humidity Pressure Visibility Wind Dir Wind Speed Gust Speed Precip Events Conditions
12:53 AM 80.6 °F 81.1 °F 59.0 °F 48% 29.79 in 10.0 mi SSW 11.5 mph - N/A   Clear
1:53 AM 75.2 °F - 60.8 °F 61% 29.80 in 10.0 mi SW 4.6 mph - N/A   Clear
2:53 AM 78.1 °F - 59.0 °F 52% 29.74 in 10.0 mi SW 10.4 mph - N/A Thunderstorm Clear
3:09 AM 75.2 °F - 60.8 °F 61% 29.81 in 10.0 mi North 5.8 mph 24.2 mph N/A   Clear
3:53 AM 77.0 °F - 62.6 °F 61% 29.84 in 10.0 mi NW 12.7 mph - N/A Rain , Thunderstorm Light Thunderstorms and Rain
4:53 AM 72.0 °F - 69.1 °F 91% 29.80 in 10.0 mi East 5.8 mph - 0.16 in Thunderstorm Clear
5:31 AM 71.6 °F - 69.8 °F 94% 29.87 in 10.0 mi East 8.1 mph - 0.01 in Rain Light Rain
5:53 AM 72.0 °F - 69.1 °F 91% 29.83 in 9.0 mi North 8.1 mph - 0.02 in Thunderstorm Mostly Cloudy
6:10 AM 71.6 °F - 69.8 °F 94% 29.89 in 6.0 mi ENE 10.4 mph - 0.00 in Rain Light Rain
6:34 AM 71.6 °F - 69.8 °F 94% 29.88 in 5.0 mi ENE 13.8 mph - 0.05 in   Mostly Cloudy
6:44 AM 71.6 °F - 69.8 °F 94% 29.89 in 4.0 mi East 10.4 mph - 0.05 in Rain , Thunderstorm Thunderstorms and Rain
6:51 AM 71.6 °F - 69.8 °F 94% 29.89 in 4.0 mi ENE 10.4 mph - 0.07 in Rain Light Rain
6:53 AM 71.6 °F - 69.8 °F 94% 29.89 in 5.0 mi ENE 9.2 mph - N/A Rain Light Rain
7:53 AM 72.0 °F - 69.1 °F 91% 29.86 in 8.0 mi East 9.2 mph - 0.00 in   Clear
8:53 AM 73.9 °F - 69.1 °F 85% 29.88 in 10.0 mi NE 9.2 mph - N/A   Clear
9:42 AM 73.4 °F - 69.8 °F 88% 29.94 in 10.0 mi NNE 13.8 mph - N/A   Mostly Cloudy
9:53 AM 73.0 °F - 69.1 °F 87% 29.88 in 10.0 mi NE 13.8 mph 19.6 mph N/A   Overcast
10:53 AM 75.9 °F - 69.1 °F 79% 29.89 in 10.0 mi ENE 13.8 mph - N/A   Mostly Cloudy
11:10 AM 77.0 °F - 69.8 °F 78% 29.94 in 10.0 mi NE 11.5 mph - N/A   Mostly Cloudy
11:53 AM 78.1 °F - 69.1 °F 74% 29.88 in 10.0 mi ENE 15.0 mph - N/A   Mostly Cloudy
12:53 PM 81.0 °F 84.4 °F 70.0 °F 69% 29.87 in 10.0 mi East 15.0 mph - 0.00 in   Scattered Clouds
1:53 PM 82.0 °F 85.9 °F 70.0 °F 67% 29.88 in 10.0 mi ENE 8.1 mph - 0.00 in   Mostly Cloudy
2:17 PM 80.6 °F 83.9 °F 69.8 °F 70% 29.94 in 10.0 mi North 5.8 mph - N/A   Mostly Cloudy
2:24 PM 80.6 °F 83.9 °F 69.8 °F 70% 29.95 in 10.0 mi North 4.6 mph - N/A Thunderstorm Mostly Cloudy
2:30 PM 80.6 °F 83.9 °F 69.8 °F 70% 29.96 in 10.0 mi NNW 3.5 mph - N/A Thunderstorm Thunderstorm
2:49 PM 75.2 °F - 71.6 °F 89% 29.96 in 1.8 mi NW 8.1 mph - 0.03 in Rain , Thunderstorm Heavy Thunderstorms and Rain
2:53 PM 75.2 °F - 71.6 °F 89% 29.96 in 1.5 mi North 6.9 mph - N/A Rain , Thunderstorm Heavy Thunderstorms and Rain
2:56 PM 75.2 °F - 71.6 °F 89% 29.95 in 1.8 mi North 5.8 mph - 0.02 in Rain , Thunderstorm Light Thunderstorms and Rain
3:00 PM 75.2 °F - 73.4 °F 94% 29.94 in 3.0 mi NNE 8.1 mph - 0.03 in Rain Rain
3:17 PM 75.2 °F - 71.6 °F 89% 29.93 in 9.0 mi ENE 8.1 mph - 0.05 in Rain Light Rain
3:53 PM 75.9 °F - 70.0 °F 82% 29.88 in 10.0 mi West 4.6 mph - 0.05 in Thunderstorm Thunderstorm
4:06 PM 75.2 °F - 69.8 °F 83% 29.93 in 10.0 mi South 4.6 mph - N/A Thunderstorm Thunderstorm
4:10 PM 75.2 °F - 71.6 °F 89% 29.92 in 7.0 mi South 8.1 mph - 0.00 in Rain , Thunderstorm Thunderstorms and Rain
4:12 PM 75.2 °F - 71.6 °F 89% 29.91 in 5.0 mi SSE 11.5 mph - 0.00 in Rain , Thunderstorm Rain
4:37 PM 77.0 °F - 69.8 °F 78% 29.91 in 9.0 mi ESE 11.5 mph 21.9 mph 0.04 in Rain Light Rain
4:53 PM 75.0 °F - 71.1 °F 87% 29.88 in 10.0 mi Calm Calm - 0.04 in Rain Light Rain
5:00 PM 75.2 °F - 71.6 °F 89% 29.90 in 10.0 mi ENE 3.5 mph - N/A Rain , Thunderstorm Light Rain
5:14 PM 75.2 °F - 71.6 °F 89% 29.88 in 9.0 mi SE 16.1 mph - 0.01 in Rain , Thunderstorm Light Rain
5:24 PM 75.2 °F - 69.8 °F 83% 29.88 in 10.0 mi SSE 8.1 mph - 0.01 in Rain , Thunderstorm Light Rain
5:53 PM 77.0 °F - 66.0 °F 69% 29.83 in 10.0 mi SSE 12.7 mph - 0.01 in Thunderstorm Clear
6:53 PM 75.9 °F - 66.9 °F 74% 29.81 in 10.0 mi ENE 3.5 mph - N/A   Mostly Cloudy
7:31 PM 73.4 °F - 68.0 °F 83% 29.87 in 10.0 mi Calm Calm - N/A Thunderstorm Clear
7:53 PM 73.9 °F - 68.0 °F 82% 29.83 in 10.0 mi Calm Calm - 0.00 in Rain Light Rain
8:00 PM 73.4 °F - 68.0 °F 83% 29.88 in 10.0 mi NNE 4.6 mph - 0.00 in Rain , Thunderstorm Light Rain
8:36 PM 71.6 °F - 68.0 °F 88% 29.87 in 10.0 mi NNE 5.8 mph - 0.00 in   Clear
8:53 PM 71.6 °F - 66.2 °F 83% 29.88 in 10.0 mi NNE 3.5 mph - N/A   Clear
9:53 PM 69.8 °F - 66.2 °F 88% 29.88 in 10.0 mi NNE 5.8 mph - N/A   Clear
10:53 PM 69.1 °F - 66.9 °F 93% 29.85 in 7.0 mi Calm Calm - N/A   Partly Cloudy
11:53 PM 68.0 °F - 66.2 °F 94% 29.90 in 3.0 mi NW 4.6 mph - N/A   Clear